Location: Unspecified
(42.3650°N, 71.1030°W)
Time: 15:44:07
(UTC+00:00)

Tiros 1 - Pass Details

Date: 02 July 2024
Orbit: 624 x 656 km, 48.4° (Epoch: 13 July)

Event Time Altitude Azimuth Distance (km) Brightness Sun altitude
Rises 00:42:50 0° 226° (SW) 2,898 10.6 -3.5°
Reaches altitude 10° 00:45:11 10° 221° (SW) 1,991 9.7 -3.9°
Maximum altitude 00:49:38 53° 145° (SE) 770 7.2 -4.6°
Drops below altitude 10° 00:54:06 10° 69° (ENE) 1,995 9.4 -5.2°
Sets 00:56:27 0° 65° (ENE) 2,905 10.2 -5.6°
